Regional Weather Roundup
Issued by NWS

Home | Current Version | Previous Version | Graphics & Text | Print | Product List | Glossary On
Versions: 1 2 3 4 5 6 7 8 9 10 11 12 13 14 15 16 17 18 19 20 21 22 23 24 25 26 27 28 29 30 31 32 33 34 35 36 37 38 39 40 41 42 43 44 45 46 47 48 49 50
000
ASUS45 KCYS 220710
RWRWY

WYOMING REGIONAL WEATHER ROUNDUP
NATIONAL WEATHER SERVICE CHEYENNE WY
1200 AM MST WED FEB 22 2017

NOTE:  "FAIR" INDICATES FEW OR NO CLOUDS BELOW 12,000 FEET
WITH NO SIGNIFICANT WEATHER AND/OR OBSTRUCTIONS TO VISIBILITY.

WYZ001-220800-
YELLOWSTONE NATIONAL PARK

CITY           SKY/WX    TMP DP  RH WIND       PRES   REMARKS
LK YELLOWSTONE   N/A     20  18  92 CALM      29.85F
W YELLOWSTONE  NOT AVBL

$$
WYZ002>013-054>058-071-098>099-220800-
NORTHERN WYOMING

CITY           SKY/WX    TMP DP  RH WIND       PRES   REMARKS
JACKSON        CLOUDY    30  25  80 S16       29.92R WCI  19
CODY           FAIR      37  24  59 SW15G25   29.80R WCI  28
GREYBULL       FAIR      40  26  57 CALM      29.77R
WORLAND        FAIR      39  28  64 W16       29.79R WCI  30
SHERIDAN       FAIR      45  24  43 SW20      29.71R
BUFFALO        FAIR      46  21  37 SW16      29.75R
GILLETTE       FAIR      46  28  49 SW23G31   29.69F
HULETT         FAIR      46  32  57 SW7       29.70S
NEWCASTLE      FAIR      41  34  75 E6        29.75F

$$
WYZ014>020-022>026-101>103-220800-
CENTRAL WYOMING

CITY           SKY/WX    TMP DP  RH WIND       PRES   REMARKS
BIG PINEY      MOCLDY    25  24  96 S8        29.97F WCI  16
PINEDALE       FAIR      27  21  80 SW5       29.96F WCI  21
DUBOIS         PTSUNNY   27  18  69 W22       29.83R WCI  12
LANDER         FAIR      35  21  56 W18       29.87R WCI  24
RIVERTON       FAIR      33  30  88 SW8       29.88R WCI  26
CASPER         CLOUDY    38  25  59 SW15      29.86S WCI  29
DOUGLAS        LGT RAIN  38  33  82 W18       29.88R WCI  28

$$
WYZ021-027>030-104>119-220800-
SOUTHERN WYOMING

CITY           SKY/WX    TMP DP  RH WIND       PRES   REMARKS
EVANSTON       LGT SNOW  27  24  89 W6        30.03S FOG     WCI  20
KEMMERER       LGT SNOW  27  27 100 SW10      30.00F VSB 1   WCI  17
FORT BRIDGER   LGT SNOW  28  28 100 W10       30.07R WCI  19
ROCK SPRINGS   LGT SNOW  28  26  92 SW12      30.00F FOG     WCI  18
DIXON          LGT SNOW  31  29  92 S3        30.07S
RAWLINS        CLOUDY    30  25  81 W18G28    29.97R WCI  18
SARATOGA       CLOUDY    30  28  93 W12G22    30.01R WCI  21
LARAMIE        MOCLDY    37  29  72 NW28G36   29.91R WCI  25
CHEYENNE       FAIR      46  18  32 W13       29.87R
TORRINGTON     MOCLDY    47  35  63 NW18G28   29.79R
PINE BLUFFS    FAIR      46  19  34 SW16G29   29.83S

$$



USA.gov is the U.S. government's official web portal to all federal, state and local government web resources and services.